GW1943 Weather Reports


time (UTC)temp
C
wind
direction
speed
KPH
gust
KPH
rain 1hr
cm
rain 24hr
cm
rain mn
cm
humidity
%
barometer
mb
20240613043927 13 186 1.6 3.2 0.00 0.00 0.00 66 1021.9
20240613043427 13 208 1.6 3.2 0.00 0.00 0.00 67 1022.0
20240613042927 13 18 1.6 3.2 0.00 0.00 0.00 66 1021.9
20240613042426 14 195 0.0 1.6 0.00 0.00 0.00 66 1021.9
20240613041926 14 190 0.0 3.2 0.00 0.00 0.00 65 1021.7
20240613041426 14 199 0.0 1.6 0.00 0.00 0.00 65 1021.9
20240613040925 14 197 0.0 4.8 0.00 0.00 0.00 63 1022.0
20240613040425 14 136 1.6 3.2 0.00 0.00 0.00 64 1021.9
20240613035923 15 206 0.0 4.8 0.00 0.00 0.00 64 1021.8
20240613035422 15 35 1.6 3.2 0.00 0.00 0.00 62 1021.7
20240613034921 15 204 1.6 4.8 0.00 0.00 0.00 61 1022.0
20240613034419 15 215 1.6 3.2 0.00 0.00 0.00 61 1022.1
20240613033919 15 113 1.6 4.8 0.00 0.00 0.00 60 1022.1
20240613033417 15 247 3.2 3.2 0.00 0.00 0.00 58 1022.2
20240613032916 15 198 1.6 4.8 0.00 0.00 0.00 57 1022.0
20240613032414 16 192 0.0 8.0 0.00 0.00 0.00 57 1022.0
20240613031913 16 200 0.0 4.8 0.00 0.00 0.00 54 1022.0
20240613031411 17 55 1.6 4.8 0.00 0.00 0.00 51 1022.4
20240613030909 17 225 4.8 11.3 0.00 0.00 0.00 53 1022.1
20240613030407 17 182 3.2 8.0 0.00 0.00 0.00 52 1022.2
20240613025906 17 207 1.6 4.8 0.00 0.00 0.00 51 1022.1
20240613025404 18 201 0.0 3.2 0.00 0.00 0.00 50 1022.1
20240613024904 17 222 1.6 8.0 0.00 0.00 0.00 51 1022.3
20240613024401 18 358 3.2 3.2 0.00 0.00 0.00 50 1022.1
20240613023900 18 61 0.0 3.2 0.00 0.00 0.00 51 1022.4
20240613023359 18 211 1.6 4.8 0.00 0.00 0.00 52 1022.3
20240613022859 18 199 3.2 3.2 0.00 0.00 0.00 50 1022.0
20240613022357 18 294 1.6 3.2 0.00 0.00 0.00 51 1022.3
20240613021856 18 246 1.6 8.0 0.00 0.00 0.00 50 1022.1
20240613021355 18 14 4.8 8.0 0.00 0.00 0.00 50 1022.1
20240613020854 18 237 3.2 8.0 0.00 0.00 0.00 51 1022.2
20240613020354 17 51 4.8 12.9 0.00 0.00 0.00 52 1022.1
20240613015853 17 269 0.0 3.2 0.00 0.00 0.00 53 1022.5
20240613015351 17 61 3.2 4.8 0.00 0.00 0.00 53 1022.5
20240613014851 17 202 3.2 8.0 0.00 0.00 0.00 54 1022.5
20240613014350 17 205 0.0 9.7 0.00 0.00 0.00 54 1022.6
20240613013850 17 211 0.0 1.6 0.00 0.00 0.00 55 1022.5
20240613013348 17 184 1.6 8.0 0.00 0.00 0.00 52 1022.6
20240613012847 19 211 6.4 8.0 0.00 0.00 0.00 50 1022.9
20240613012345 19 10 3.2 3.2 0.00 0.00 0.00 49 1022.7
20240613011844 20 266 3.2 9.7 0.00 0.00 0.00 50 1022.8
20240613011342 19 205 0.0 3.2 0.00 0.00 0.00 52 1022.5
20240613010841 19 81 4.8 8.0 0.00 0.00 0.00 50 1022.8
20240613010339 19 213 0.0 3.2 0.00 0.00 0.00 52 1022.6
20240613005837 19 79 3.2 4.8 0.00 0.00 0.00 51 1022.8
20240613005335 19 202 1.6 9.7 0.00 0.00 0.00 52 1022.7
20240613004834 19 150 0.0 9.7 0.00 0.00 0.00 53 1022.9
20240613004328 20 22 3.2 8.0 0.00 0.00 0.00 48 1022.9
20240613003828 19 6 1.6 8.0 0.00 0.00 0.00 51 1023.0
20240613003327 20 35 4.8 4.8 0.00 0.00 0.00 50 1023.1
20240613002825 21 224 1.6 3.2 0.00 0.00 0.00 47 1023.1
20240613002325 20 214 3.2 4.8 0.00 0.00 0.00 48 1022.9
20240613001824 20 201 1.6 4.8 0.00 0.00 0.00 52 1023.0
20240613001324 20 228 1.6 11.3 0.00 0.00 0.00 52 1023.0
20240613000823 20 48 3.2 12.9 0.00 0.00 0.00 51 1023.0
20240613000325 20 203 1.6 11.3 0.00 0.00 0.00 51 1023.0
20240612235822 20 170 0.0 9.7 0.00 0.00 0.00 53 1023.1
20240612235321 20 208 1.6 4.8 0.00 0.00 0.00 51 1023.1
20240612234819 20 225 1.6 9.7 0.00 0.00 0.00 53 1023.3
20240612234318 20 220 3.2 8.0 0.00 0.00 0.00 52 1023.5
20240612233816 20 193 3.2 8.0 0.00 0.00 0.00 51 1023.3
20240612233315 21 226 1.6 3.2 0.00 0.00 0.00 50 1023.3
20240612232810 20 224 1.6 4.8 0.00 0.00 0.00 48 1023.4
20240612232310 20 217 1.6 8.0 0.00 0.00 0.00 52 1023.2
20240612231809 20 211 1.6 9.7 0.00 0.00 0.00 50 1023.5
20240612231307 20 218 1.6 4.8 0.00 0.00 0.00 50 1023.4
20240612230806 20 203 4.8 4.8 0.00 0.00 0.00 47 1023.4
20240612230304 21 216 1.6 3.2 0.00 0.00 0.00 46 1023.4
20240612225802 21 71 4.8 4.8 0.00 0.00 0.00 43 1023.2
20240612225301 20 217 1.6 4.8 0.00 0.00 0.00 46 1023.3
20240612224800 20 263 3.2 8.0 0.00 0.00 0.00 48 1023.4
20240612224259 20 50 3.2 4.8 0.00 0.00 0.00 48 1023.4
20240612223758 20 208 0.0 8.0 0.00 0.00 0.00 50 1023.6
20240612223256 20 234 1.6 3.2 0.00 0.00 0.00 47 1023.5
20240612222755 21 211 0.0 1.6 0.00 0.00 0.00 46 1023.4
20240612222255 21 236 1.6 4.8 0.00 0.00 0.00 46 1023.6
20240612221755 20 214 0.0 4.8 0.00 0.00 0.00 48 1023.7
20240612221254 20 216 4.8 8.0 0.00 0.00 0.00 43 1023.5
20240612220753 20 171 0.0 8.0 0.00 0.00 0.00 46 1023.8
20240612220252 20 285 1.6 8.0 0.00 0.00 0.00 50 1023.7
20240612215751 21 207 0.0 3.2 0.00 0.00 0.00 47 1023.7
20240612215251 20 110 0.0 3.2 0.00 0.00 0.00 48 1023.9
20240612214749 20 29 3.2 4.8 0.00 0.00 0.00 46 1023.7
20240612214249 20 191 1.6 3.2 0.00 0.00 0.00 44 1023.9
20240612213748 20 201 0.0 4.8 0.00 0.00 0.00 50 1024.0
20240612213249 19 228 1.6 3.2 0.00 0.00 0.00 49 1023.7
20240612212747 20 291 1.6 9.7 0.00 0.00 0.00 50 1024.0
20240612212246 20 218 0.0 4.8 0.00 0.00 0.00 51 1024.0
20240612211745 20 147 0.0 4.8 0.00 0.00 0.00 50 1023.8
20240612211245 20 234 1.6 4.8 0.00 0.00 0.00 51 1024.2
20240612210744 20 69 4.8 4.8 0.00 0.00 0.00 47 1024.1
20240612210243 19 72 1.6 8.0 0.00 0.00 0.00 48 1024.1
20240612205741 18 224 1.6 8.0 0.00 0.00 0.00 50 1024.2
20240612205240 19 44 3.2 9.7 0.00 0.00 0.00 48 1024.3
20240612204740 19 358 4.8 4.8 0.00 0.00 0.00 50 1024.1
20240612204237 18 59 4.8 8.0 0.00 0.00 0.00 50 1024.2
20240612203736 18 202 3.2 4.8 0.00 0.00 0.00 50 1024.4
20240612203236 18 37 4.8 8.0 0.00 0.00 0.00 49 1024.3
20240612202734 17 46 3.2 4.8 0.00 0.00 0.00 52 1024.3
20240612202233 18 219 0.0 4.8 0.00 0.00 0.00 51 1024.3
20240612201732 18 205 3.2 8.0 0.00 0.00 0.00 52 1024.3
20240612201230 18 189 1.6 8.0 0.00 0.00 0.00 52 1024.3
20240612200729 18 235 3.2 8.0 0.00 0.00 0.00 54 1024.3
20240612200228 18 208 3.2 8.0 0.00 0.00 0.00 51 1024.3
20240612195726 17 261 3.2 8.0 0.00 0.00 0.00 54 1024.4
20240612195224 17 208 1.6 8.0 0.00 0.00 0.00 52 1024.6
20240612194723 17 137 0.0 3.2 0.00 0.00 0.00 58 1024.5
20240612194222 16 217 1.6 1.6 0.00 0.00 0.00 54 1024.5
20240612193720 17 193 1.6 3.2 0.00 0.00 0.00 53 1024.6
20240612193220 18 0 1.6 4.8 0.00 0.00 0.00 56 1024.4
20240612192720 17 209 0.0 3.2 0.00 0.00 0.00 53 1024.4
20240612192220 16 202 0.0 3.2 0.00 0.00 0.00 56 1024.4
20240612191719 16 213 0.0 4.8 0.00 0.00 0.00 58 1024.5
20240612191217 16 231 4.8 8.0 0.00 0.00 0.00 56 1024.6
20240612190716 16 215 0.0 1.6 0.00 0.00 0.00 55 1024.6
20240612190215 16 190 1.6 3.2 0.00 0.00 0.00 56 1024.8
20240612185714 16 229 3.2 4.8 0.00 0.00 0.00 57 1024.6
20240612185212 16 53 3.2 4.8 0.00 0.00 0.00 56 1024.7
20240612184712 15 201 0.0 8.0 0.00 0.00 0.00 59 1024.6
20240612184210 16 189 1.6 3.2 0.00 0.00 0.00 57 1024.5
20240612183710 15 208 4.8 4.8 0.00 0.00 0.00 60 1024.7
20240612183207 15 214 1.6 3.2 0.00 0.00 0.00 61 1024.6
20240612182706 15 218 0.0 3.2 0.00 0.00 0.00 62 1024.8
20240612182203 15 207 1.6 3.2 0.00 0.00 0.00 62 1024.8
20240612181701 14 47 4.8 4.8 0.00 0.00 0.00 61 1024.7
20240612181200 15 167 1.6 3.2 0.00 0.00 0.00 62 1024.7
20240612180700 15 216 0.0 3.2 0.00 0.00 0.00 62 1024.7
20240612180159 15 202 0.0 3.2 0.00 0.00 0.00 61 1024.5
20240612175656 15 202 1.6 3.2 0.00 0.00 0.00 61 1024.8
20240612175154 15 202 0.0 4.8 0.00 0.00 0.00 61 1025.0
20240612174652 13 211 0.0 3.2 0.00 0.00 0.00 67 1025.0
20240612174151 13 217 1.6 1.6 0.00 0.00 0.00 69 1024.7
20240612173649 13 204 0.0 1.6 0.00 0.00 0.00 70 1024.9
20240612173148 13 144 1.6 9.7 0.00 0.00 0.00 68 1024.8
20240612172642 13 240 0.0 1.6 0.00 0.00 0.00 70 1024.9
20240612172142 13 223 1.6 1.6 0.00 0.00 0.00 66 1024.6
20240612171640 14 222 0.0 4.8 0.00 0.00 0.00 67 1024.8
20240612171138 14 205 0.0 3.2 0.00 0.00 0.00 65 1024.8
20240612170637 14 202 1.6 4.8 0.00 0.00 0.00 63 1024.8
20240612170137 14 213 0.0 1.6 0.00 0.00 0.00 66 1024.9
20240612165636 14 204 1.6 4.8 0.00 0.00 0.00 66 1024.9
20240612165134 13 196 0.0 1.6 0.00 0.00 0.00 67 1024.7
20240612164633 13 188 1.6 4.8 0.00 0.00 0.00 67 1024.7
20240612164133 13 243 1.6 3.2 0.00 0.00 0.00 66 1024.9
20240612163632 13 206 1.6 3.2 0.00 0.00 0.00 66 1024.8
20240612163131 13 218 0.0 3.2 0.00 0.00 0.00 66 1024.7
20240612162629 13 205 3.2 4.8 0.00 0.00 0.00 65 1024.5
20240612162129 14 39 3.2 4.8 0.00 0.00 0.00 64 1024.7
20240612161628 13 202 0.0 3.2 0.00 0.00 0.00 68 1024.6
20240612161127 13 200 0.0 8.0 0.00 0.00 0.00 67 1024.6
20240612160626 13 230 1.6 4.8 0.00 0.00 0.00 66 1024.5
20240612160125 13 238 0.0 4.8 0.00 0.00 0.00 67 1024.7
20240612155624 14 209 0.0 3.2 0.00 0.00 0.00 67 1024.9
20240612155124 13 206 0.0 3.2 0.00 0.00 0.00 67 1024.7
20240612154624 13 221 1.6 1.6 0.00 0.00 0.00 68 1024.6
20240612154123 13 219 0.0 1.6 0.00 0.00 0.00 69 1024.6
20240612153622 13 207 1.6 4.8 0.00 0.00 0.00 67 1024.5
20240612153120 13 202 0.0 1.6 0.00 0.00 0.00 69 1024.5
20240612152619 13 208 0.0 1.6 0.00 0.00 0.00 70 1024.2
20240612152117 12 210 0.0 3.2 0.00 0.00 0.00 69 1024.5
20240612151616 12 194 0.0 3.2 0.00 0.00 0.00 70 1024.6
20240612151115 12 195 0.0 4.8 0.00 0.00 0.00 70 1024.5
20240612150611 12 20 0.0 3.2 0.00 0.00 0.00 71 1024.4
20240612150111 12 48 1.6 3.2 0.00 0.00 0.00 73 1024.4
20240612145609 12 194 0.0 3.2 0.00 0.00 0.00 73 1024.5
20240612145107 12 209 0.0 1.6 0.00 0.00 0.00 74 1024.3
20240612144606 12 207 0.0 1.6 0.00 0.00 0.00 74 1024.4
20240612144104 12 179 1.6 4.8 0.00 0.00 0.00 73 1024.4
20240612143602 12 210 0.0 1.6 0.00 0.00 0.00 74 1024.4
20240612143101 12 210 1.6 1.6 0.00 0.00 0.00 74 1024.2
20240612142559 12 209 0.0 1.6 0.00 0.00 0.00 75 1024.1
20240612142058 12 210 0.0 4.8 0.00 0.00 0.00 75 1024.1
20240612141557 12 250 0.0 1.6 0.00 0.00 0.00 77 1024.0
20240612141057 11 216 0.0 1.6 0.00 0.00 0.00 77 1024.1
20240612140556 11 212 0.0 3.2 0.00 0.00 0.00 77 1023.9
20240612140055 11 215 1.6 1.6 0.00 0.00 0.00 77 1023.8
20240612135552 11 210 0.0 1.6 0.00 0.00 0.00 78 1023.8
20240612135051 11 84 3.2 8.0 0.00 0.00 0.00 78 1023.7
20240612134550 11 191 0.0 1.6 0.00 0.00 0.00 78 1023.7
20240612134048 11 184 0.0 1.6 0.00 0.00 0.00 78 1023.7
20240612133547 11 198 0.0 1.6 0.00 0.00 0.00 79 1023.5
20240612133045 11 204 1.6 1.6 0.00 0.00 0.00 79 1023.4
20240612132543 11 205 0.0 3.2 0.00 0.00 0.00 78 1023.4
20240612132042 11 201 0.0 3.2 0.00 0.00 0.00 78 1023.2
20240612131540 11 209 0.0 3.2 0.00 0.00 0.00 78 1023.4
20240612131039 11 209 0.0 3.2 0.00 0.00 0.00 77 1023.2
20240612130537 11 204 0.0 0.0 0.00 0.00 0.00 78 1023.2
20240612130037 10 194 0.0 1.6 0.00 0.00 0.00 79 1023.3
20240612125537 10 212 0.0 1.6 0.00 0.00 0.00 79 1023.2
20240612125036 10 206 1.6 8.0 0.00 0.00 0.00 79 1023.1
20240612124536 10 147 1.6 11.3 0.00 0.00 0.00 80 1023.3
20240612124034 10 190 0.0 1.6 0.00 0.00 0.00 80 1023.3
20240612123533 10 219 1.6 1.6 0.00 0.00 0.00 79 1023.2
20240612123032 10 195 1.6 8.0 0.00 0.00 0.00 79 1023.2
20240612122531 10 200 4.8 8.0 0.00 0.00 0.00 80 1023.0
20240612122030 10 202 0.0 3.2 0.00 0.00 0.00 80 1022.9
20240612121529 10 208 0.0 1.6 0.00 0.00 0.00 80 1023.2
20240612121028 10 128 3.2 4.8 0.00 0.00 0.00 81 1023.0
20240612120527 10 202 0.0 3.2 0.00 0.00 0.00 79 1023.2
20240612120027 10 178 1.6 4.8 0.00 0.00 0.00 80 1023.1
20240612115524 10 64 1.6 3.2 0.00 0.00 0.00 80 1022.9
20240612115022 10 197 1.6 3.2 0.00 0.00 0.00 81 1023.0
20240612114520 10 203 0.0 0.0 0.00 0.00 0.00 80 1023.0
20240612114018 10 155 0.0 3.2 0.00 0.00 0.00 80 1023.0
20240612113518 11 174 0.0 1.6 0.00 0.00 0.00 80 1023.1
20240612113017 11 202 0.0 1.6 0.00 0.00 0.00 80 1023.2
20240612112516 11 202 1.6 3.2 0.00 0.00 0.00 79 1023.0
20240612112016 11 204 0.0 1.6 0.00 0.00 0.00 80 1022.9
20240612111515 11 205 3.2 4.8 0.00 0.00 0.00 79 1023.0
20240612111014 11 206 0.0 0.0 0.00 0.00 0.00 80 1022.8
20240612110512 11 212 0.0 1.6 0.00 0.00 0.00 78 1022.9
20240612110010 11 323 1.6 3.2 0.00 0.00 0.00 78 1022.9
20240612105506 11 155 1.6 4.8 0.00 0.00 0.00 78 1022.9
20240612105004 11 188 3.2 3.2 0.00 0.00 0.00 79 1022.6
20240612104503 11 204 0.0 0.0 0.00 0.00 0.00 79 1023.0
20240612104000 11 195 0.0 3.2 0.00 0.00 0.00 79 1022.7
20240612103459 11 216 0.0 0.0 0.00 0.00 0.00 79 1022.9
20240612102957 11 204 0.0 0.0 0.00 0.00 0.00 78 1022.9
20240612102456 11 204 0.0 3.2 0.00 0.00 0.00 78 1022.8
20240612101955 11 206 0.0 1.6 0.00 0.00 0.00 79 1022.9
20240612101453 11 206 0.0 0.0 0.00 0.00 0.00 78 1022.8
20240612100952 11 211 0.0 1.6 0.00 0.00 0.00 78 1022.9
20240612100449 11 202 0.0 0.0 0.00 0.00 0.00 77 1022.8
20240612095948 11 205 0.0 4.8 0.00 0.00 0.00 77 1023.0
20240612095445 11 322 0.0 3.2 0.00 0.00 0.00 78 1023.0
20240612094945 11 209 0.0 1.6 0.00 0.00 0.00 77 1022.8
20240612094446 11 212 0.0 1.6 0.00 0.00 0.00 79 1023.0
20240612093945 11 210 0.0 1.6 0.00 0.00 0.00 78 1023.0
20240612093444 11 212 0.0 0.0 0.00 0.00 0.00 78 1022.9
20240612092943 11 207 0.0 0.0 0.00 0.00 0.00 77 1023.1
20240612092441 11 214 0.0 0.0 0.00 0.00 0.00 77 1023.2
20240612091940 10 208 0.0 0.0 0.00 0.00 0.00 78 1023.0
20240612091439 11 203 0.0 1.6 0.00 0.00 0.00 78 1023.1
20240612090939 10 126 3.2 3.2 0.00 0.00 0.00 77 1023.2
20240612090438 10 16 3.2 8.0 0.00 0.00 0.00 78 1022.9
20240612085938 10 199 0.0 0.0 0.00 0.00 0.00 78 1023.1
20240612085437 11 199 0.0 0.0 0.00 0.00 0.00 78 1023.0
20240612084935 10 209 0.0 0.0 0.00 0.00 0.00 78 1023.1
20240612084434 10 209 0.0 0.0 0.00 0.00 0.00 78 1023.1
20240612083935 10 208 0.0 0.0 0.00 0.00 0.00 78 1023.1
20240612083432 10 210 0.0 0.0 0.00 0.00 0.00 79 1023.3
20240612082932 11 210 0.0 0.0 0.00 0.00 0.00 78 1023.0
20240612082431 11 210 0.0 0.0 0.00 0.00 0.00 77 1023.0
20240612081930 11 210 0.0 0.0 0.00 0.00 0.00 77 1022.9
20240612081429 11 211 0.0 0.0 0.00 0.00 0.00 76 1023.1
20240612080927 11 197 0.0 0.0 0.00 0.00 0.00 76 1023.0
20240612080426 11 196 0.0 1.6 0.00 0.00 0.00 76 1023.0
20240612075926 11 199 0.0 0.0 0.00 0.00 0.00 78 1022.9
20240612075425 11 203 0.0 1.6 0.00 0.00 0.00 78 1023.1
20240612074923 11 199 0.0 0.0 0.00 0.00 0.00 78 1023.2
20240612074422 11 198 0.0 1.6 0.00 0.00 0.00 77 1023.2
20240612073922 11 198 0.0 0.0 0.00 0.00 0.00 79 1023.2
20240612073420 11 198 0.0 0.0 0.00 0.00 0.00 78 1023.0
20240612072919 11 198 0.0 0.0 0.00 0.00 0.00 79 1023.0
20240612072418 11 198 0.0 0.0 0.00 0.00 0.00 77 1023.0
20240612071918 11 198 0.0 0.0 0.00 0.00 0.00 77 1023.0
20240612071416 11 198 0.0 0.0 0.00 0.00 0.00 76 1023.1
20240612070915 11 197 0.0 0.0 0.00 0.00 0.00 75 1023.0
20240612070414 11 205 0.0 0.0 0.00 0.00 0.00 76 1023.1
20240612065914 11 201 0.0 1.6 0.00 0.00 0.00 75 1023.1
20240612065413 11 200 0.0 0.0 0.00 0.00 0.00 76 1023.2
20240612064911 11 200 0.0 0.0 0.00 0.00 0.00 76 1023.2
20240612064410 11 199 0.0 0.0 0.00 0.00 0.00 76 1023.2
20240612063908 11 197 0.0 3.2 0.00 0.00 0.00 75 1023.2
20240612063406 11 202 0.0 3.2 0.00 0.00 0.00 75 1023.1
20240612062905 11 151 1.6 3.2 0.00 0.00 0.00 75 1023.2
20240612062403 11 196 0.0 0.0 0.00 0.00 0.00 75 1023.3
20240612061901 12 203 0.0 0.0 0.00 0.00 0.00 75 1023.1
20240612061359 11 196 0.0 3.2 0.00 0.00 0.00 75 1023.1
20240612060900 12 197 0.0 1.6 0.00 0.00 0.00 75 1023.2
20240612060358 12 199 0.0 0.0 0.00 0.00 0.00 75 1023.2
20240612055857 12 209 0.0 0.0 0.00 0.00 0.00 76 1023.4
20240612055355 12 207 0.0 1.6 0.00 0.00 0.00 74 1023.3
20240612054853 12 206 0.0 1.6 0.00 0.00 0.00 76 1023.1
20240612054353 12 202 0.0 3.2 0.00 0.00 0.00 74 1023.3
20240612053852 12 194 1.6 3.2 0.00 0.00 0.00 75 1023.1
20240612053350 12 203 0.0 0.0 0.00 0.00 0.00 75 1023.2
20240612052849 12 205 0.0 0.0 0.00 0.00 0.00 76 1023.0
20240612052346 12 202 0.0 0.0 0.00 0.00 0.00 75 1023.1
20240612051845 12 207 0.0 0.0 0.00 0.00 0.00 75 1023.0
20240612051343 12 211 0.0 0.0 0.00 0.00 0.00 75 1022.9
20240612050841 12 217 0.0 1.6 0.00 0.00 0.00 76 1023.2
20240612050340 12 210 0.0 1.6 0.00 0.00 0.00 75 1023.0
20240612045838 12 204 0.0 3.2 0.00 0.00 0.00 75 1023.0
20240612045337 12 210 0.0 1.6 0.00 0.00 0.00 74 1023.0
20240612044835 12 199 0.0 1.6 0.00 0.00 0.00 74 1023.1
20240612044334 12 128 1.6 3.2 0.00 0.00 0.00 74 1022.9